Exy Johnson — WDB3395 — position and weather

sailwx.info

Track history (hours):
 
Tides and Currents Weather Stations Pressure Air Temp Water Temp Dewpoint Dewpoint Depression Visibility Wind Speed Wind Dir Waves Ship Positions

Exy Johnson (United States)

Ship's website: http://www.lamitopsail.org/index.asp

Owner: Los Angeles Maritime Institute, San Pedro, CA. More information available from US FCC via Universal Licensing System and Coast Guard Vessel Documentation Center.

Last reported at 2017-Apr-25 20:45 UTC. Time now 2017-Apr-26 11:43 UTC.
Position N 33°44' W 118°17'.

Length 34 m; draft 3.7 m.

Type: Sailing vessel. MMSI: 366883970.

Date/timePositionNaut miles runAvg speedWind from/ knotsBaromVisibWave heightAir tempDewpointWater temp
2017-Apr-25 20:45N 33°44' W 118°17'0 0.0
2017-Apr-25 20:30N 33°44' W 118°17'0 0.0
2017-Apr-25 20:00N 33°44' W 118°17'0 0.7
2017-Apr-25 19:29N 33°44' W 118°16'1 1.8
2017-Apr-25 18:57N 33°43' W 118°16'  
2017-Apr-23 02:59N 33°44' W 118°17'0 0.1
2017-Apr-23 02:30N 33°44' W 118°17'1 2.9
2017-Apr-23 02:00N 33°43' W 118°16'2 3.0
2017-Apr-23 01:21N 33°41' W 118°15'2 5.2
2017-Apr-23 01:00N 33°43' W 118°15'2 3.8
2017-Apr-23 00:30N 33°44' W 118°17'0 0.1
2017-Apr-22 22:04N 33°44' W 118°17'0 0.0
2017-Apr-22 21:57N 33°44' W 118°17'0 0.0
2017-Apr-22 21:27N 33°44' W 118°17'0 0.0
2017-Apr-22 20:59N 33°44' W 118°17'0 0.0
2017-Apr-22 20:04N 33°44' W 118°17'0 0.0
2017-Apr-22 20:00N 33°44' W 118°17'1 1.0
2017-Apr-22 19:30N 33°44' W 118°16'1 2.0
2017-Apr-22 19:00N 33°43' W 118°16'1 1.1
2017-Apr-22 18:30N 33°43' W 118°16'0 0.8
2017-Apr-22 18:00N 33°43' W 118°16'1 1.3
2017-Apr-22 17:30N 33°44' W 118°17'0 0.0
2017-Apr-22 17:00N 33°44' W 118°17'0 0.0
2017-Apr-22 16:30N 33°44' W 118°17'0 0.0
2017-Apr-22 16:00N 33°44' W 118°17'0 0.0
2017-Apr-22 15:30N 33°44' W 118°17'0 0.0
2017-Apr-22 15:00N 33°44' W 118°17'0 0.0
2017-Apr-22 14:30N 33°44' W 118°17'0 0.0
2017-Apr-22 12:50N 33°44' W 118°17'0 0.0
2017-Apr-22 12:30N 33°44' W 118°17'0 0.0
2017-Apr-22 12:00N 33°44' W 118°17'0 0.0
2017-Apr-22 11:30N 33°44' W 118°17'0 0.0
2017-Apr-22 11:00N 33°44' W 118°17'0 0.0
2017-Apr-22 10:30N 33°44' W 118°17'0 0.0
2017-Apr-22 10:00N 33°44' W 118°17'0 0.0
2017-Apr-22 09:30N 33°44' W 118°17'0 0.0
2017-Apr-22 09:00N 33°44' W 118°17'0 0.0
2017-Apr-22 08:30N 33°44' W 118°17'0 0.0
2017-Apr-22 07:27N 33°44' W 118°17'0 0.0
2017-Apr-22 07:00N 33°44' W 118°17'0 0.0
2017-Apr-22 06:30N 33°44' W 118°17'0 0.0
2017-Apr-22 06:00N 33°44' W 118°17'0 0.0
2017-Apr-22 05:30N 33°44' W 118°17'0 0.0
2017-Apr-22 05:00N 33°44' W 118°17'0 0.0
2017-Apr-22 04:30N 33°44' W 118°17'0 0.0
2017-Apr-22 01:41N 33°44' W 118°17'0 0.0
2017-Apr-22 01:27N 33°44' W 118°17'0 0.0
2017-Apr-22 01:00N 33°44' W 118°17'0 0.0
2017-Apr-21 21:32N 33°44' W 118°17'0 0.0
2017-Apr-21 21:16N 33°44' W 118°17'0 0.0
2017-Apr-21 19:30N 33°44' W 118°17'5 1.9
2017-Apr-21 16:54N 33°39' W 118°19'5 6.3
2017-Apr-21 16:11N 33°36' W 118°22'5 7.3
2017-Apr-21 15:32N 33°32' W 118°26'0 7.5
2017-Apr-21 15:29N 33°32' W 118°26'3 7.2
2017-Apr-21 15:00N 33°29' W 118°29'2 3.5
2017-Apr-21 14:21N 33°27' W 118°30'0 0.0
2017-Apr-21 02:21N 33°27' W 118°30'0 0.0
2017-Apr-20 02:30N 33°27' W 118°30'0 0.0
2017-Apr-20 01:59N 33°27' W 118°30'0 0.0
2017-Apr-20 00:59N 33°27' W 118°30'2 3.6
2017-Apr-20 00:28N 33°27' W 118°27'19 0.7
2017-Apr-18 20:09N 33°44' W 118°17'0 0.0
2017-Apr-18 20:00N 33°44' W 118°17'1 1.0
2017-Apr-18 19:19N 33°45' W 118°17'1 1.4
2017-Apr-18 18:41N 33°44' W 118°16'0 1.9
2017-Apr-18 18:30N 33°44' W 118°16'1 0.3
2017-Apr-18 16:49N 33°44' W 118°17'0 0.0
2017-Apr-18 16:25N 33°44' W 118°17'0 0.0
2017-Apr-17 22:53N 33°44' W 118°17'0 0.0
2017-Apr-17 22:30N 33°44' W 118°17'0 0.0
2017-Apr-17 22:00N 33°44' W 118°17'0 0.0
2017-Apr-17 21:30N 33°44' W 118°17'0 0.0
2017-Apr-17 21:01N 33°44' W 118°17'0 0.0
2017-Apr-17 20:30N 33°44' W 118°17'0 0.5
2017-Apr-17 19:58N 33°44' W 118°16'0 1.0
2017-Apr-17 19:30N 33°43' W 118°16'1 2.4
2017-Apr-17 19:00N 33°43' W 118°15'1 1.6
2017-Apr-17 18:30N 33°43' W 118°16'1 1.8
2017-Apr-17 18:00N 33°44' W 118°16'0 0.6
2017-Apr-17 17:21N 33°44' W 118°17'0 0.0
2017-Apr-17 16:59N 33°44' W 118°17'0 0.0
2017-Apr-17 16:05N 33°44' W 118°17'0 0.0
2017-Apr-17 15:44N 33°44' W 118°17'0 0.0
2017-Apr-17 14:33N 33°44' W 118°17'0 0.0
2017-Apr-17 13:57N 33°44' W 118°17'0 0.0
2017-Apr-17 13:26N 33°44' W 118°17'0 0.0
2017-Apr-17 12:56N 33°44' W 118°17'0 0.0
2017-Apr-17 12:29N 33°44' W 118°17'0 0.0
2017-Apr-17 12:00N 33°44' W 118°17'0 0.0
2017-Apr-17 11:30N 33°44' W 118°17'0 0.0
2017-Apr-17 10:58N 33°44' W 118°17'0 0.0
2017-Apr-17 10:11N 33°44' W 118°17'0 0.0
2017-Apr-17 10:00N 33°44' W 118°17'0 0.0
2017-Apr-17 09:28N 33°44' W 118°17'0 0.0
2017-Apr-17 08:56N 33°44' W 118°17'0 0.0
2017-Apr-17 08:28N 33°44' W 118°17'0 0.0
2017-Apr-17 08:00N 33°44' W 118°17'0 0.0
2017-Apr-17 07:30N 33°44' W 118°17'0 0.0
2017-Apr-17 06:52N 33°44' W 118°17'0 0.0
2017-Apr-17 06:25N 33°44' W 118°17'0 0.0
2017-Apr-17 06:00N 33°44' W 118°17'0 0.0
2017-Apr-17 05:28N 33°44' W 118°17'0 0.0
2017-Apr-17 04:59N 33°44' W 118°17'0 0.0
2017-Apr-17 04:29N 33°44' W 118°17'0 0.0
2017-Apr-17 03:59N 33°44' W 118°17'0 0.0
2017-Apr-17 03:29N 33°44' W 118°17'0 0.0
2017-Apr-17 02:59N 33°44' W 118°17'0 0.0
2017-Apr-17 02:24N 33°44' W 118°17'0 0.0
2017-Apr-17 01:59N 33°44' W 118°17'0 0.0
2017-Apr-17 01:30N 33°44' W 118°17'0 0.0
2017-Apr-17 01:00N 33°44' W 118°17'0 0.0
2017-Apr-17 00:29N 33°44' W 118°17'0 0.0
2017-Apr-17 00:00N 33°44' W 118°17'0 0.0
2017-Apr-16 23:29N 33°44' W 118°17'0 0.0
2017-Apr-16 22:57N 33°44' W 118°17'0 0.0
2017-Apr-16 22:27N 33°44' W 118°17'0 0.0
2017-Apr-16 22:00N 33°44' W 118°17'0 0.0
2017-Apr-16 21:29N 33°44' W 118°17'0 0.0
2017-Apr-16 20:58N 33°44' W 118°17'0 0.0
2017-Apr-16 20:25N 33°44' W 118°17'0 0.0
2017-Apr-16 20:00N 33°44' W 118°17'0 0.0
2017-Apr-16 19:29N 33°44' W 118°17'0 0.0
2017-Apr-16 18:58N 33°44' W 118°17'0 0.0
2017-Apr-16 18:30N 33°44' W 118°17'0 0.0
2017-Apr-16 17:45N 33°44' W 118°17'0 0.0
2017-Apr-16 17:12N 33°44' W 118°17'0 0.0
2017-Apr-16 16:56N 33°44' W 118°17'0 0.0
2017-Apr-16 16:24N 33°44' W 118°17'0 0.0
2017-Apr-16 15:53N 33°44' W 118°17'0 0.0
2017-Apr-16 15:12N 33°44' W 118°17'0 0.0
2017-Apr-16 14:59N 33°44' W 118°17'0 0.0
2017-Apr-16 13:58N 33°44' W 118°17'0 0.0
2017-Apr-16 13:28N 33°44' W 118°17'0 0.0
2017-Apr-16 12:59N 33°44' W 118°17'0 0.0
2017-Apr-16 12:30N 33°44' W 118°17'0 0.0
2017-Apr-16 12:00N 33°44' W 118°17'0 0.0
2017-Apr-16 11:30N 33°44' W 118°17'0 0.0
2017-Apr-16 11:00N 33°44' W 118°17'0 0.0
2017-Apr-16 10:30N 33°44' W 118°17'0 0.0
2017-Apr-16 10:00N 33°44' W 118°17'0 0.0
2017-Apr-16 09:28N 33°44' W 118°17'0 0.0
2017-Apr-16 09:00N 33°44' W 118°17'0 0.0
2017-Apr-16 08:28N 33°44' W 118°17'0 0.0
2017-Apr-16 08:00N 33°44' W 118°17'0 0.0
2017-Apr-16 07:29N 33°44' W 118°17'0 0.0
2017-Apr-16 07:00N 33°44' W 118°17'0 0.0
2017-Apr-16 06:25N 33°44' W 118°17'0 0.0
2017-Apr-16 06:00N 33°44' W 118°17'0 0.0
2017-Apr-16 05:24N 33°44' W 118°17'0 0.0
2017-Apr-16 04:06N 33°44' W 118°17'0 0.0
2017-Apr-16 03:54N 33°44' W 118°17'0 0.0
2017-Apr-16 03:24N 33°44' W 118°17'0 0.0
2017-Apr-16 03:00N 33°44' W 118°17'0 0.0
2017-Apr-16 02:30N 33°44' W 118°17'0 0.0
2017-Apr-16 01:51N 33°44' W 118°17'0 0.0
2017-Apr-16 01:26N 33°44' W 118°17'0 0.0
2017-Apr-16 01:00N 33°44' W 118°17'0 0.0
2017-Apr-16 00:30N 33°44' W 118°17'0 0.0
2017-Apr-16 00:00N 33°44' W 118°17'0 0.0
2017-Apr-15 23:30N 33°44' W 118°17'0 0.0
2017-Apr-15 23:00N 33°44' W 118°17'0 0.0
2017-Apr-15 22:30N 33°44' W 118°17'0 0.0
2017-Apr-15 22:00N 33°44' W 118°17'0 1.0
2017-Apr-15 21:30N 33°44' W 118°16'1 2.3
2017-Apr-15 21:01N 33°43' W 118°15'  
Track history (hours):
 
Tides and Currents Weather Stations Pressure Air Temp Water Temp Dewpoint Dewpoint Depression Visibility Wind Speed Wind Dir Waves Ship Positions

Exy Johnson (United States)

Ship's website: http://www.lamitopsail.org/index.asp

Owner: Los Angeles Maritime Institute, San Pedro, CA. More information available from US FCC via Universal Licensing System and Coast Guard Vessel Documentation Center.

Last reported at 2017-Apr-25 20:45 UTC. Time now 2017-Apr-26 11:43 UTC.
Position N 33°44' W 118°17'.

Length 34 m; draft 3.7 m.

Type: Sailing vessel. MMSI: 366883970.

Date/timePositionNaut miles runAvg speedWind from/ knotsBaromVisibWave heightAir tempDewpointWater temp
2017-Apr-25 20:45N 33°44' W 118°17'0 0.0
2017-Apr-25 20:30N 33°44' W 118°17'0 0.0
2017-Apr-25 20:00N 33°44' W 118°17'0 0.7
2017-Apr-25 19:29N 33°44' W 118°16'1 1.8
2017-Apr-25 18:57N 33°43' W 118°16'  
2017-Apr-23 02:59N 33°44' W 118°17'0 0.1
2017-Apr-23 02:30N 33°44' W 118°17'1 2.9
2017-Apr-23 02:00N 33°43' W 118°16'2 3.0
2017-Apr-23 01:21N 33°41' W 118°15'2 5.2
2017-Apr-23 01:00N 33°43' W 118°15'2 3.8
2017-Apr-23 00:30N 33°44' W 118°17'0 0.1
2017-Apr-22 22:04N 33°44' W 118°17'0 0.0
2017-Apr-22 21:57N 33°44' W 118°17'0 0.0
2017-Apr-22 21:27N 33°44' W 118°17'0 0.0
2017-Apr-22 20:59N 33°44' W 118°17'0 0.0
2017-Apr-22 20:04N 33°44' W 118°17'0 0.0
2017-Apr-22 20:00N 33°44' W 118°17'1 1.0
2017-Apr-22 19:30N 33°44' W 118°16'1 2.0
2017-Apr-22 19:00N 33°43' W 118°16'1 1.1
2017-Apr-22 18:30N 33°43' W 118°16'0 0.8
2017-Apr-22 18:00N 33°43' W 118°16'1 1.3
2017-Apr-22 17:30N 33°44' W 118°17'0 0.0
2017-Apr-22 17:00N 33°44' W 118°17'0 0.0
2017-Apr-22 16:30N 33°44' W 118°17'0 0.0
2017-Apr-22 16:00N 33°44' W 118°17'0 0.0
2017-Apr-22 15:30N 33°44' W 118°17'0 0.0
2017-Apr-22 15:00N 33°44' W 118°17'0 0.0
2017-Apr-22 14:30N 33°44' W 118°17'0 0.0
2017-Apr-22 12:50N 33°44' W 118°17'0 0.0
2017-Apr-22 12:30N 33°44' W 118°17'0 0.0
2017-Apr-22 12:00N 33°44' W 118°17'0 0.0
2017-Apr-22 11:30N 33°44' W 118°17'0 0.0
2017-Apr-22 11:00N 33°44' W 118°17'0 0.0
2017-Apr-22 10:30N 33°44' W 118°17'0 0.0
2017-Apr-22 10:00N 33°44' W 118°17'0 0.0
2017-Apr-22 09:30N 33°44' W 118°17'0 0.0
2017-Apr-22 09:00N 33°44' W 118°17'0 0.0
2017-Apr-22 08:30N 33°44' W 118°17'0 0.0
2017-Apr-22 07:27N 33°44' W 118°17'0 0.0
2017-Apr-22 07:00N 33°44' W 118°17'0 0.0
2017-Apr-22 06:30N 33°44' W 118°17'0 0.0
2017-Apr-22 06:00N 33°44' W 118°17'0 0.0
2017-Apr-22 05:30N 33°44' W 118°17'0 0.0
2017-Apr-22 05:00N 33°44' W 118°17'0 0.0
2017-Apr-22 04:30N 33°44' W 118°17'0 0.0
2017-Apr-22 01:41N 33°44' W 118°17'0 0.0
2017-Apr-22 01:27N 33°44' W 118°17'0 0.0
2017-Apr-22 01:00N 33°44' W 118°17'0 0.0
2017-Apr-21 21:32N 33°44' W 118°17'0 0.0
2017-Apr-21 21:16N 33°44' W 118°17'0 0.0
2017-Apr-21 19:30N 33°44' W 118°17'5 1.9
2017-Apr-21 16:54N 33°39' W 118°19'5 6.3
2017-Apr-21 16:11N 33°36' W 118°22'5 7.3
2017-Apr-21 15:32N 33°32' W 118°26'0 7.5
2017-Apr-21 15:29N 33°32' W 118°26'3 7.2
2017-Apr-21 15:00N 33°29' W 118°29'2 3.5
2017-Apr-21 14:21N 33°27' W 118°30'0 0.0
2017-Apr-21 02:21N 33°27' W 118°30'0 0.0
2017-Apr-20 02:30N 33°27' W 118°30'0 0.0
2017-Apr-20 01:59N 33°27' W 118°30'0 0.0
2017-Apr-20 00:59N 33°27' W 118°30'2 3.6
2017-Apr-20 00:28N 33°27' W 118°27'19 0.7
2017-Apr-18 20:09N 33°44' W 118°17'0 0.0
2017-Apr-18 20:00N 33°44' W 118°17'1 1.0
2017-Apr-18 19:19N 33°45' W 118°17'1 1.4
2017-Apr-18 18:41N 33°44' W 118°16'0 1.9
2017-Apr-18 18:30N 33°44' W 118°16'1 0.3
2017-Apr-18 16:49N 33°44' W 118°17'0 0.0
2017-Apr-18 16:25N 33°44' W 118°17'0 0.0
2017-Apr-17 22:53N 33°44' W 118°17'0 0.0
2017-Apr-17 22:30N 33°44' W 118°17'0 0.0
2017-Apr-17 22:00N 33°44' W 118°17'0 0.0
2017-Apr-17 21:30N 33°44' W 118°17'0 0.0
2017-Apr-17 21:01N 33°44' W 118°17'0 0.0
2017-Apr-17 20:30N 33°44' W 118°17'0 0.5
2017-Apr-17 19:58N 33°44' W 118°16'0 1.0
2017-Apr-17 19:30N 33°43' W 118°16'1 2.4
2017-Apr-17 19:00N 33°43' W 118°15'1 1.6
2017-Apr-17 18:30N 33°43' W 118°16'1 1.8
2017-Apr-17 18:00N 33°44' W 118°16'0 0.6
2017-Apr-17 17:21N 33°44' W 118°17'0 0.0
2017-Apr-17 16:59N 33°44' W 118°17'0 0.0
2017-Apr-17 16:05N 33°44' W 118°17'0 0.0
2017-Apr-17 15:44N 33°44' W 118°17'0 0.0
2017-Apr-17 14:33N 33°44' W 118°17'0 0.0
2017-Apr-17 13:57N 33°44' W 118°17'0 0.0
2017-Apr-17 13:26N 33°44' W 118°17'0 0.0
2017-Apr-17 12:56N 33°44' W 118°17'0 0.0
2017-Apr-17 12:29N 33°44' W 118°17'0 0.0
2017-Apr-17 12:00N 33°44' W 118°17'0 0.0
2017-Apr-17 11:30N 33°44' W 118°17'0 0.0
2017-Apr-17 10:58N 33°44' W 118°17'0 0.0
2017-Apr-17 10:11N 33°44' W 118°17'0 0.0
2017-Apr-17 10:00N 33°44' W 118°17'0 0.0
2017-Apr-17 09:28N 33°44' W 118°17'0 0.0
2017-Apr-17 08:56N 33°44' W 118°17'0 0.0
2017-Apr-17 08:28N 33°44' W 118°17'0 0.0
2017-Apr-17 08:00N 33°44' W 118°17'0 0.0
2017-Apr-17 07:30N 33°44' W 118°17'0 0.0
2017-Apr-17 06:52N 33°44' W 118°17'0 0.0
2017-Apr-17 06:25N 33°44' W 118°17'0 0.0
2017-Apr-17 06:00N 33°44' W 118°17'0 0.0
2017-Apr-17 05:28N 33°44' W 118°17'0 0.0
2017-Apr-17 04:59N 33°44' W 118°17'0 0.0
2017-Apr-17 04:29N 33°44' W 118°17'0 0.0
2017-Apr-17 03:59N 33°44' W 118°17'0 0.0
2017-Apr-17 03:29N 33°44' W 118°17'0 0.0
2017-Apr-17 02:59N 33°44' W 118°17'0 0.0
2017-Apr-17 02:24N 33°44' W 118°17'0 0.0
2017-Apr-17 01:59N 33°44' W 118°17'0 0.0
2017-Apr-17 01:30N 33°44' W 118°17'0 0.0
2017-Apr-17 01:00N 33°44' W 118°17'0 0.0
2017-Apr-17 00:29N 33°44' W 118°17'0 0.0
2017-Apr-17 00:00N 33°44' W 118°17'0 0.0
2017-Apr-16 23:29N 33°44' W 118°17'0 0.0
2017-Apr-16 22:57N 33°44' W 118°17'0 0.0
2017-Apr-16 22:27N 33°44' W 118°17'0 0.0
2017-Apr-16 22:00N 33°44' W 118°17'0 0.0
2017-Apr-16 21:29N 33°44' W 118°17'0 0.0
2017-Apr-16 20:58N 33°44' W 118°17'0 0.0
2017-Apr-16 20:25N 33°44' W 118°17'0 0.0
2017-Apr-16 20:00N 33°44' W 118°17'0 0.0
2017-Apr-16 19:29N 33°44' W 118°17'0 0.0
2017-Apr-16 18:58N 33°44' W 118°17'0 0.0
2017-Apr-16 18:30N 33°44' W 118°17'0 0.0
2017-Apr-16 17:45N 33°44' W 118°17'0 0.0
2017-Apr-16 17:12N 33°44' W 118°17'0 0.0
2017-Apr-16 16:56N 33°44' W 118°17'0 0.0
2017-Apr-16 16:24N 33°44' W 118°17'0 0.0
2017-Apr-16 15:53N 33°44' W 118°17'0 0.0
2017-Apr-16 15:12N 33°44' W 118°17'0 0.0
2017-Apr-16 14:59N 33°44' W 118°17'0 0.0
2017-Apr-16 13:58N 33°44' W 118°17'0 0.0
2017-Apr-16 13:28N 33°44' W 118°17'0 0.0
2017-Apr-16 12:59N 33°44' W 118°17'0 0.0
2017-Apr-16 12:30N 33°44' W 118°17'0 0.0
2017-Apr-16 12:00N 33°44' W 118°17'0 0.0
2017-Apr-16 11:30N 33°44' W 118°17'0 0.0
2017-Apr-16 11:00N 33°44' W 118°17'0 0.0
2017-Apr-16 10:30N 33°44' W 118°17'0 0.0
2017-Apr-16 10:00N 33°44' W 118°17'0 0.0
2017-Apr-16 09:28N 33°44' W 118°17'0 0.0
2017-Apr-16 09:00N 33°44' W 118°17'0 0.0
2017-Apr-16 08:28N 33°44' W 118°17'0 0.0
2017-Apr-16 08:00N 33°44' W 118°17'0 0.0
2017-Apr-16 07:29N 33°44' W 118°17'0 0.0
2017-Apr-16 07:00N 33°44' W 118°17'0 0.0
2017-Apr-16 06:25N 33°44' W 118°17'0 0.0
2017-Apr-16 06:00N 33°44' W 118°17'0 0.0
2017-Apr-16 05:24N 33°44' W 118°17'0 0.0
2017-Apr-16 04:06N 33°44' W 118°17'0 0.0
2017-Apr-16 03:54N 33°44' W 118°17'0 0.0
2017-Apr-16 03:24N 33°44' W 118°17'0 0.0
2017-Apr-16 03:00N 33°44' W 118°17'0 0.0
2017-Apr-16 02:30N 33°44' W 118°17'0 0.0
2017-Apr-16 01:51N 33°44' W 118°17'0 0.0
2017-Apr-16 01:26N 33°44' W 118°17'0 0.0
2017-Apr-16 01:00N 33°44' W 118°17'0 0.0
2017-Apr-16 00:30N 33°44' W 118°17'0 0.0
2017-Apr-16 00:00N 33°44' W 118°17'0 0.0
2017-Apr-15 23:30N 33°44' W 118°17'0 0.0
2017-Apr-15 23:00N 33°44' W 118°17'0 0.0
2017-Apr-15 22:30N 33°44' W 118°17'0 0.0
2017-Apr-15 22:00N 33°44' W 118°17'0 1.0
2017-Apr-15 21:30N 33°44' W 118°16'1 2.3
2017-Apr-15 21:01N 33°43' W 118°15'  

Dump ship's entire track history